[[{"header":{"parameterUnit":"m.s-1","parameterCategory":1,"la1":30.2991,"la2":30.254,"lo1":-89.0895,"lo2":-89.0444,"dy":0.0017,"dx":0.0017,"nx":28,"ny":28,"refTime":"2025-04-27T09:00:00:Z","depth":0,"parameterNumber":2,"parameterNumberName":"U-component_of_WINDS"},"data":[0,0,0,0,0,0,0,0,0,0,0,0,0,0,0,0,0,0,0,0,0,0,0,0,0,0,0,0,0,0,0,0,0,0,0,0,0,0,0,0,0,0,0,0,0,0,0,0,0,0,0,0,0,0,0,0,0,0,0.1819,0.182,0,0.1865,0.1865,0.1866,0.1877,0.1877,0.1877,0.1876,0.1922,0.1924,0.1925,0,0,0,0,0,0,0,0,0,0,0,0,0,0.174,0.1742,0.1819,0.182,0.182,0.1865,0.1865,0.1866,0.1877,0.1877,0.1877,0.1876,0.1922,0.1924,0.1925,0,0,0,0,0,0,0,0,0,0,0,0,0,0.1779,0.1742,0.1819,0.1831,0.1833,0.1865,0.1865,0.1866,0.1877,0.1877,0.1876,0.1876,0.1921,0.1923,0.1926,0.1948,0,0,0.1933,0.1933,0,0,0,0,0,0,0,0,0.1777,0.1782,0.1829,0.183,0.1832,0.1865,0.1855,0.1894,0.1877,0.186,0.1876,0.1876,0.1904,0.1907,0.1917,0.1951,0.1953,0.1933,0.1934,0.1935,0.1936,0,0,0,0,0,0,0,0.1774,0.178,0.1837,0.183,0.1832,0.1834,0.1839,0.1862,0.1884,0.1862,0.1863,0.1868,0.1904,0.1915,0.1918,0.1953,0.1933,0.1935,0.1936,0.1937,0.2008,0.2008,0,0,0,0,0,0,0.177,0.1778,0.1836,0.1839,0.1803,0.1836,0.1841,0.1855,0.1884,0.1888,0.1868,0.1868,0.1911,0.1915,0.192,0.1948,0.1935,0.1937,0.1938,0.2007,0.2008,0.2008,0,0,0,0,0,0,0.1768,0.1775,0.1834,0.1808,0.1816,0.1838,0.1853,0.1856,0.1866,0.1889,0.1892,0.1875,0.1911,0.1916,0.1941,0.195,0.1938,0.194,0.2006,0.2007,0.2008,0.2005,0,0,0,0,0,0,0.1766,0.1774,0.1783,0.1809,0.1818,0.1855,0.1853,0.1857,0.187,0.1871,0.1896,0.1899,0.1911,0.1938,0.1943,0.1953,0.1942,0.2006,0.2007,0.2008,0.2004,0.2006,0.2007,0,0,0,0,0,0.1763,0.178,0.1784,0.179,0.183,0.1856,0.1861,0.1874,0.1871,0.188,0.1894,0.1899,0.1948,0.194,0.1947,0.1957,0.2005,0.2007,0.2008,0.2004,0.2005,0.2007,0,0,0,0,0,0,0.1755,0.1784,0.1788,0.1814,0.1832,0.1857,0.1869,0.1875,0.1894,0.1893,0.1908,0.1914,0.1938,0.195,0.1941,0.198,0.1976,0.1979,0.1971,0.1973,0.1974,0.1971,0.1944,0,0,0,0,0,0.1757,0.1776,0.18,0.1821,0.183,0.1848,0.186,0.1868,0.1887,0.1895,0.1911,0.1929,0.1949,0.1962,0.1981,0.2006,0.2011,0.2016,0.2017,0.2018,0.202,0.2034,0.2036,0.2012,0.2012,0.2012,0,0,0.176,0.1778,0.1789,0.182,0.1835,0.1854,0.1854,0.1875,0.1889,0.1898,0.1923,0.1935,0.1956,0.1981,0.1993,0.1992,0.2028,0.2019,0.202,0.2022,0.2035,0.2038,0.2039,0.2013,0.2013,0.2013,0,0,0.1775,0.1791,0.181,0.1825,0.1848,0.186,0.1864,0.1889,0.1897,0.1922,0.1929,0.1946,0.198,0.1995,0.2006,0.2027,0.2032,0.2033,0.2038,0.2052,0.2054,0.2055,0.2062,0.2065,0.2035,0.2035,0.2035,0,0.1776,0.1806,0.1819,0.1839,0.1852,0.1862,0.1881,0.1895,0.1922,0.1931,0.1929,0.1971,0.1986,0.2015,0.202,0.2029,0.2035,0.203,0.2052,0.2054,0.2056,0.2063,0.2066,0.2035,0.2035,0.2035,0.2035,0,0.1806,0.1826,0.1838,0.1865,0.188,0.1899,0.1915,0.1928,0.1935,0.1947,0.1972,0.199,0.2013,0.2021,0.2028,0.205,0.2049,0.2049,0.2046,0.2058,0.2065,0.2068,0.2035,0.2035,0.2035,0.2035,0,0,0.1818,0.1852,0.1856,0.1868,0.1894,0.191,0.1929,0.1952,0.1963,0.1981,0.1998,0.2026,0.2027,0.204,0.2049,0.206,0.2075,0.206,0.206,0.2062,0.2101,0.21,0.2103,0.2078,0.2079,0.2079,0.2099,0,0.1837,0.1872,0.1885,0.1914,0.1933,0.1942,0.1959,0.1976,0.1988,0.2005,0.2018,0.2037,0.2037,0.2045,0.2057,0.2071,0.2083,0.207,0.2094,0.2094,0.2088,0.2106,0.2106,0.2123,0.2101,0.2102,0.2102,0,0.1863,0.1882,0.1914,0.1937,0.1945,0.196,0.1982,0.1998,0.2018,0.2025,0.204,0.2048,0.2068,0.2063,0.2092,0.2082,0.2093,0.2101,0.2102,0.2104,0.2099,0.2109,0.2129,0.2132,0.2107,0.2106,0.2106,0,0.1869,0.1902,0.1925,0.1936,0.1963,0.1973,0.1985,0.2004,0.2017,0.2036,0.2044,0.2065,0.2076,0.2092,0.2105,0.21,0.2131,0.2128,0.2138,0.2138,0.2144,0.2144,0.2166,0.2151,0.2151,0.2151,0.2151,0,0.1888,0.1907,0.1928,0.1943,0.1964,0.1978,0.1998,0.201,0.2027,0.2043,0.2052,0.2067,0.2084,0.2101,0.2111,0.2132,0.2137,0.2144,0.2146,0.2143,0.2142,0.215,0.2149,0.2152,0.2151,0.2151,0.2151,0,0.1898,0.1914,0.1939,0.1963,0.1969,0.1984,0.2004,0.2018,0.203,0.205,0.2056,0.2074,0.2095,0.2109,0.2135,0.2142,0.2165,0.2168,0.2159,0.216,0.2169,0.2168,0.2197,0.2202,0.2184,0.2184,0.2184,0,0.191,0.1925,0.195,0.1962,0.1973,0.1992,0.2005,0.2019,0.2032,0.2056,0.2066,0.2088,0.2105,0.2137,0.2153,0.2173,0.2176,0.2185,0.2179,0.2175,0.2176,0.2175,0.2176,0.2186,0.2186,0.2186,0.2186,0,0.1929,0.1935,0.1954,0.1975,0.199,0.2007,0.2025,0.2034,0.2051,0.2065,0.2086,0.21,0.2126,0.2147,0.2169,0.218,0.2186,0.2188,0.2191,0.2188,0.2182,0.2185,0.2161,0.2187,0.2187,0.2187,0.2187,0.2187,0.194,0.1953,0.1973,0.1993,0.2008,0.2023,0.2037,0.2051,0.2069,0.2092,0.2099,0.2121,0.214,0.2169,0.2181,0.2198,0.2198,0.2203,0.2204,0.2205,0.2205,0.2179,0.2202,0.2202,0.2202,0.2202,0.2202,0,0.1959,0.1972,0.199,0.2014,0.203,0.2034,0.2053,0.2066,0.2085,0.2102,0.212,0.2144,0.2164,0.2181,0.2201,0.2211,0.2214,0.2216,0.2216,0.2218,0.2204,0.2199,0.2214,0.2214,0.2214,0.2214,0.2214,0.2214,0.1971,0.1993,0.2002,0.2032,0.2045,0.2066,0.2077,0.2091,0.2105,0.2132,0.2148,0.2159,0.2176,0.2198,0.2217,0.2221,0.2228,0.2229,0.2234,0.2221,0.2219,0.2218,0.2213,0.2231,0.2231,0.2247,0.2247,0.2248]},{"header":{"parameterUnit":"m.s-1","parameterCategory":1,"la1":30.2991,"la2":30.254,"lo1":-89.0895,"lo2":-89.0444,"dy":0.0017,"dx":0.0017,"nx":28,"ny":28,"refTime":"2025-04-27T09:00:00:Z","depth":0,"parameterNumber":3,"parameterNumberName":"V-component_of_WINDS"},"data":[0,0,0,0,0,0,0,0,0,0,0,0,0,0,0,0,0,0,0,0,0,0,0,0,0,0,0,0,0,0,0,0,0,0,0,0,0,0,0,0,0,0,0,0,0,0,0,0,0,0,0,0,0,0,0,0,0,0,0.8532,0.8532,0,0.8547,0.8547,0.8547,0.8525,0.8525,0.8524,0.8523,0.8538,0.8539,0.854,0,0,0,0,0,0,0,0,0,0,0,0,0,0.8485,0.8486,0.8532,0.8532,0.8532,0.8547,0.8547,0.8547,0.8525,0.8525,0.8524,0.8523,0.8537,0.8538,0.854,0,0,0,0,0,0,0,0,0,0,0,0,0,0.8503,0.8486,0.8532,0.8523,0.8523,0.8547,0.8547,0.8547,0.8526,0.8525,0.8523,0.8522,0.8537,0.8538,0.854,0.8573,0,0,0.8545,0.8546,0,0,0,0,0,0,0,0,0.8502,0.8505,0.8524,0.8524,0.8523,0.8533,0.8535,0.8556,0.8526,0.8525,0.8523,0.8522,0.8537,0.8538,0.8544,0.8573,0.8574,0.8545,0.8546,0.8547,0.8547,0,0,0,0,0,0,0,0.8501,0.8504,0.8538,0.8525,0.8524,0.8519,0.852,0.8539,0.8537,0.8525,0.8523,0.8525,0.8536,0.8542,0.8544,0.8574,0.8545,0.8546,0.8547,0.8548,0.8631,0.8632,0,0,0,0,0,0,0.8501,0.8503,0.8537,0.8538,0.851,0.852,0.8522,0.8531,0.8537,0.8536,0.8526,0.8524,0.854,0.8542,0.8544,0.8583,0.8547,0.8548,0.8549,0.863,0.8631,0.8633,0,0,0,0,0,0,0.85,0.8504,0.8537,0.852,0.8524,0.8522,0.8533,0.8532,0.8538,0.8538,0.8537,0.8532,0.8539,0.8542,0.8566,0.8583,0.8549,0.855,0.8628,0.863,0.8632,0.866,0,0,0,0,0,0,0.8498,0.8504,0.8516,0.8521,0.8525,0.8558,0.8534,0.8533,0.8541,0.8538,0.8544,0.8543,0.8538,0.8563,0.8567,0.8585,0.8552,0.8627,0.8629,0.8631,0.8658,0.8663,0.8667,0,0,0,0,0,0.8497,0.8524,0.8517,0.8521,0.8541,0.8559,0.8562,0.8556,0.8542,0.8555,0.8555,0.8543,0.858,0.8566,0.857,0.8588,0.8626,0.8629,0.8631,0.8656,0.8662,0.8667,0,0,0,0,0,0,0.8521,0.8524,0.8517,0.8546,0.8553,0.8556,0.8571,0.8562,0.8573,0.857,0.8562,0.8563,0.8589,0.8591,0.8575,0.862,0.8601,0.8605,0.8618,0.8624,0.8628,0.8628,0.8553,0,0,0,0,0,0.853,0.8545,0.8547,0.8572,0.8576,0.8573,0.8581,0.8576,0.8582,0.8585,0.8586,0.8593,0.8606,0.8615,0.8627,0.8658,0.8659,0.8672,0.8677,0.8681,0.8684,0.8701,0.8707,0.8642,0.8642,0.8642,0,0,0.8548,0.8552,0.8562,0.8577,0.8582,0.8597,0.8576,0.8593,0.8604,0.8587,0.861,0.8611,0.8618,0.8646,0.8658,0.8648,0.8703,0.8685,0.8688,0.8689,0.8704,0.871,0.8716,0.8644,0.8643,0.8643,0,0,0.8589,0.8594,0.8615,0.862,0.8627,0.8625,0.8631,0.8635,0.8635,0.8658,0.8646,0.8659,0.8682,0.8687,0.8693,0.8736,0.8726,0.874,0.8765,0.8781,0.8786,0.879,0.8806,0.8811,0.8743,0.8743,0.8743,0,0.8611,0.8634,0.8627,0.8646,0.8653,0.8638,0.866,0.8665,0.8676,0.8681,0.867,0.8698,0.8702,0.873,0.8741,0.8746,0.8751,0.8739,0.8786,0.879,0.8794,0.8809,0.8814,0.8745,0.8745,0.8745,0.8744,0,0.8661,0.8677,0.8693,0.8704,0.8713,0.8733,0.8729,0.8739,0.8733,0.8732,0.8755,0.8759,0.8771,0.8777,0.8772,0.8805,0.8799,0.8787,0.8767,0.8802,0.8816,0.8821,0.8747,0.8747,0.8746,0.8746,0,0,0.8718,0.8725,0.8731,0.8735,0.8742,0.8755,0.8774,0.8786,0.8795,0.8802,0.8818,0.8838,0.8827,0.8833,0.8828,0.8842,0.8876,0.8828,0.8828,0.8837,0.8913,0.8922,0.8929,0.8869,0.887,0.8871,0.8912,0,0.8759,0.8792,0.8786,0.8819,0.8834,0.882,0.8836,0.8842,0.8842,0.8854,0.8854,0.8868,0.8852,0.8856,0.8869,0.8869,0.8891,0.8866,0.8884,0.8884,0.8883,0.8936,0.8945,0.8984,0.8918,0.8918,0.8919,0,0.8811,0.8821,0.8855,0.886,0.8866,0.8881,0.8892,0.8904,0.891,0.8908,0.8916,0.8908,0.8927,0.8907,0.8932,0.8915,0.8922,0.8923,0.8925,0.8926,0.8904,0.8939,0.8997,0.9002,0.8927,0.8927,0.8926,0,0.885,0.8872,0.8895,0.8899,0.8905,0.8916,0.8919,0.8924,0.8932,0.8941,0.8946,0.8957,0.8964,0.8972,0.8968,0.8954,0.8994,0.8974,0.8994,0.8994,0.9003,0.9003,0.9063,0.9007,0.9007,0.9007,0.9007,0,0.8897,0.8918,0.8912,0.8926,0.895,0.8943,0.8966,0.8967,0.8972,0.8986,0.8974,0.8988,0.898,0.8993,0.8989,0.9011,0.9014,0.9013,0.9012,0.9014,0.9015,0.9019,0.9016,0.9009,0.9008,0.9008,0.9008,0,0.8943,0.8941,0.8965,0.8968,0.8969,0.8986,0.8989,0.9002,0.9001,0.9019,0.9023,0.902,0.9035,0.9031,0.9046,0.9044,0.9071,0.9067,0.907,0.9068,0.9088,0.9087,0.9154,0.9162,0.9101,0.9102,0.9102,0,0.8974,0.899,0.8995,0.9003,0.9007,0.9021,0.9029,0.9023,0.9031,0.904,0.9052,0.9065,0.9076,0.9099,0.9099,0.9111,0.9106,0.9129,0.9108,0.911,0.9107,0.9106,0.9107,0.9133,0.9134,0.9134,0.9135,0,0.9027,0.9025,0.9037,0.9049,0.9058,0.9067,0.9075,0.9082,0.9077,0.9087,0.9102,0.911,0.9125,0.9139,0.915,0.9152,0.9143,0.9141,0.9147,0.9149,0.915,0.915,0.9081,0.914,0.9139,0.9139,0.9139,0.9139,0.9067,0.908,0.9086,0.91,0.9105,0.9112,0.9125,0.9125,0.9137,0.915,0.9145,0.9162,0.9168,0.9181,0.9185,0.9198,0.9189,0.9197,0.9199,0.9201,0.9203,0.9148,0.92,0.92,0.9199,0.9199,0.9199,0,0.912,0.9123,0.9136,0.9147,0.9158,0.9148,0.9156,0.9165,0.918,0.9186,0.9197,0.9214,0.9226,0.9227,0.9239,0.9249,0.9245,0.9253,0.9252,0.9253,0.921,0.9205,0.9256,0.9256,0.9256,0.9256,0.9256,0.9256,0.9149,0.9172,0.917,0.9195,0.9198,0.9214,0.922,0.9226,0.9231,0.925,0.9261,0.9261,0.9265,0.9277,0.9289,0.9289,0.9294,0.9303,0.9301,0.9261,0.9256,0.925,0.9245,0.9304,0.9304,0.9342,0.9343,0.9343]}]]